CAPE
0 0 0 0 0 0 0 110 102 110 0 93 285 154 50 282 118 29 57 38 63 45 25 77 97 139 120 119 96 182 272 566 594 454 381 526 508 601 488 709 686 965 1108 1281
0 0 0 0 0 0 0 0 0 0 175 188 368 290 403 161 263 158 76 58 57 47 34 9 1 93 90 103 64 138 301 533 412 527 385 403 675 656 692 823 777 965 961 1234
0 0 0 0 0 0 0 0 0 0 0 359 496 238 303 470 262 208 178 128 102 84 71 35 28 79 72 57 82 120 244 321 397 383 349 349 676 605 653 750 783 865 894 1106
0 0 0 0 0 0 0 0 0 0 0 8 489 14 7 84 340 337 197 161 206 147 83 41 155 105 78 35 138 137 163 296 389 361 378 255 596 669 733 731 797 779 933 1159
0 0 0 0 0 0 0 0 0 0 4 189 226 80 19 2 27 69 275 169 137 193 116 52 172 135 131 123 152 224 145 228 467 393 402 387 625 758 952 690 612 683 964 1319
0 0 0 0 0 0 0 0 22 41 129 69 89 78 0 1 22 43 195 254 92 147 152 85 59 126 213 215 240 298 259 227 484 484 450 606 731 770 692 647 501 730 967 1150
0 0 0 0 0 0 0 0 44 42 20 9 0 3 0 6 78 141 460 564 294 98 117 83 84 51 199 174 213 311 371 348 461 499 457 710 682 839 674 535 678 745 810 797
0 0 0 0 0 0 0 0 1 1 2 1 0 0 0 104 348 929 682 676 543 228 147 132 168 156 238 302 328 341 449 460 485 576 541 883 930 848 703 765 723 741 788 847
0 0 0 0 0 0 0 0 0 0 0 0 0 0 20 164 309 689 812 600 376 342 152 201 205 243 296 249 344 353 427 511 566 585 788 911 970 804 743 775 685 592 663 654
0 0 0 0 0 0 0 0 0 0 0 0 0 0 0 264 182 250 453 612 678 472 273 223 241 276 361 364 417 333 341 421 544 553 628 685 719 774 845 887 737 686 665 797
0 0 0 0 0 0 0 0 0 0 0 0 0 0 0 228 100 51 162 457 635 668 631 349 326 368 416 430 407 420 342 390 512 579 660 632 690 707 716 737 753 694 722 763
0 0 0 0 0 0 0 0 0 0 0 0 0 0 0 107 71 107 146 300 623 435 696 622 471 440 401 433 428 371 410 494 395 426 528 498 700 716 720 823 899 835 639 644
0 0 0 0 0 0 0 0 0 0 0 0 0 0 0 39 73 182 158 251 531 616 630 714 640 502 448 456 514 461 464 343 379 267 184 155 319 641 583 713 859 912 844 732
0 0 0 0 0 0 0 0 0 0 0 0 0 0 0 77 136 190 131 314 236 570 654 721 655 615 540 490 503 491 482 508 372 238 327 396 382 601 676 598 686 786 783 806
0 0 0 0 0 0 0 0 0 0 0 0 0 0 0 28 193 229 250 389 334 418 493 536 595 579 506 506 507 653 709 483 425 479 449 425 525 526 595 612 607 590 717 702
0 0 0 0 0 0 0 0 0 0 0 0 0 0 0 0 110 163 409 442 473 416 444 438 409 230 205 297 344 495 526 646 921 601 616 636 747 625 537 615 644 624 542 689
0 0 0 0 0 0 0 0 0 0 0 0 0 0 0 3 7 11 67 290 492 571 508 416 241 94 56 21 23 43 51 180 316 558 733 815 870 805 772 636 520 634 587 572
0 0 0 0 0 0 0 0 0 0 0 0 0 0 0 0 0 0 0 0 7 63 134 126 108 31 0 0 0 13 34 31 33 37 64 86 204 491 698 754 716 537 512 522
0 0 0 0 0 0 0 0 0 0 0 0 0 0 0 0 0 0 0 0 8 66 74 15 0 1 0 1 0 0 24 1 0 0 0 1 5 34 102 186 383 466 372 515
0 0 0 0 0 0 0 0 0 0 0 0 0 0 0 0 0 0 0 0 0 0 0 0 0 0 0 0 0 0 0 1 0 0 0 0 1 3 0 51 36 88 196 321
0 0 0 0 0 0 0 0 0 0 0 0 0 0 0 0 0 0 0 0 0 0 0 0 0 1 0 2 1 1 1 0 2 1 3 3 2 2 4 0 20 66 50 35
0 0 0 0 0 0 0 0 0 0 0 0 0 0 0 0 0 0 0 0 2 2 1 0 0 0 1 0 2 20 1 1 1 2 2 2 2 2 1 3 21 18 9 0
0 0 0 0 0 0 0 0 1 0 0 0 0 0 0 0 0 0 0 1 0 5 2 0 0 0 0 0 18 76 0 12 3 2 1 2 1 0 1 14 20 5 0 0
0 0 0 0 0 0 4 25 4 3 0 0 0 0 0 0 0 0 0 3 2 1 1 0 0 0 1 0 25 119 29 41 32 2 0 2 4 0 0 0 3 2 3 2
4 0 0 0 6 3 46 69 78 16 0 0 0 0 0 0 0 0 0 0 0 0 0 0 1 1 1 1 29 30 17 41 35 2 1 1 3 4 3 1 0 0 0 1
11 8 2 0 40 102 85 93 87 28 1 0 0 0 0 0 0 0 0 0 0 0 0 0 0 1 1 2 1 2 44 14 6 0 0 0 0 3 3 1 1 1 0 0
CIN
0 0 0 0 0 0 -1 -44 -45 -54 -1 -113 -62 -54 -120 -89 -127 -121 -102 -98 -75 -86 -65 -78 -86 -91 -101 -113 -116 -113 -89 -64 -57 -79 -74 -59 -50 -44 -48 -42 -47 -37 -33 -30
0 0 0 0 0 0 0 0 0 0 -84 -77 -71 -42 -55 -111 -115 -110 -88 -79 -74 -84 -103 -121 -11 -94 -121 -102 -126 -129 -106 -82 -93 -76 -91 -81 -52 -56 -39 -39 -44 -38 -35 -28
0 0 0 0 0 0 0 0 0 0 0 -92 -53 -38 -45 -89 -116 -120 -131 -109 -109 -79 -79 -128 -140 -127 -138 -119 -116 -137 -134 -121 -106 -98 -104 -113 -72 -71 -54 -44 -39 -30 -30 -25
0 0 0 0 0 0 0 0 0 0 0 -3 -53 -8 -21 -79 -94 -134 -133 -145 -127 -135 -125 -129 -129 -135 -149 -131 -118 -122 -138 -127 -104 -109 -92 -104 -42 -33 -42 -45 -32 -34 -33 -21
0 0 0 0 0 0 0 0 0 0 -64 -42 -25 -27 -12 -27 -72 -143 -139 -159 -149 -155 -119 -133 -132 -150 -138 -140 -118 -131 -148 -138 -97 -110 -94 -90 -44 -33 -27 -42 -43 -40 -36 -25
0 0 0 0 0 0 0 0 -79 -93 -70 -7 -14 -15 0 -10 -65 -103 -113 -169 -205 -183 -160 -148 -160 -161 -130 -142 -142 -129 -138 -133 -118 -108 -96 -69 -48 -33 -31 -36 -38 -27 -26 -18
0 0 0 0 0 0 0 -2 -7 -4 -5 -13 0 -14 0 -46 -123 -136 -113 -159 -221 -248 -216 -176 -154 -227 -153 -160 -153 -154 -140 -117 -124 -105 -90 -66 -56 -35 -35 -24 -24 -20 -26 -30
0 0 0 0 0 0 0 0 -2 -3 -4 -4 0 0 0 -120 -120 -127 -183 -188 -217 -250 -226 -216 -136 -153 -160 -137 -160 -168 -163 -125 -137 -108 -107 -77 -56 -44 -45 -34 -23 -23 -25 -23
0 0 0 0 0 0 0 0 0 0 0 0 0 0 -70 -113 -106 -110 -137 -171 -208 -246 -260 -224 -188 -148 -160 -175 -135 -176 -147 -154 -148 -124 -95 -84 -68 -61 -51 -43 -39 -31 -35 -26
0 0 0 0 0 0 0 0 0 0 0 0 0 0 0 -33 -60 -105 -103 -119 -141 -206 -269 -272 -206 -164 -153 -160 -140 -191 -168 -144 -143 -141 -130 -96 -80 -70 -53 -42 -43 -37 -35 -40
0 0 0 0 0 0 0 0 0 0 0 0 0 0 0 -20 -69 -125 -98 -113 -129 -121 -180 -232 -229 -205 -196 -207 -179 -167 -179 -170 -147 -148 -146 -113 -75 -65 -60 -45 -48 -43 -38 -34
0 0 0 0 0 0 0 0 0 0 0 0 0 0 0 -80 -130 -111 -91 -125 -155 -192 -196 -221 -208 -215 -226 -224 -205 -180 -147 -159 -158 -110 -164 -184 -138 -74 -55 -43 -41 -45 -40 -43
0 0 0 0 0 0 0 0 0 0 0 0 0 0 0 -123 -108 -117 -94 -137 -161 -165 -191 -193 -190 -205 -221 -209 -200 -173 -137 -147 -139 -120 -223 -181 -176 -136 -95 -60 -45 -46 -39 -33
0 0 0 0 0 0 0 0 0 0 0 0 0 0 0 -77 -71 -84 -109 -151 -199 -198 -203 -215 -215 -228 -219 -229 -217 -189 -149 -122 -116 -88 -109 -138 -165 -125 -108 -86 -84 -80 -64 -38
0 0 0 0 0 0 0 0 0 0 0 0 0 0 0 -111 -73 -77 -110 -151 -165 -173 -200 -205 -199 -214 -235 -223 -207 -168 -142 -156 -127 -76 -85 -75 -101 -81 -75 -65 -77 -97 -79 -80
0 0 0 0 0 0 0 0 0 0 0 0 0 0 0 0 -167 -126 -96 -118 -109 -147 -188 -218 -229 -274 -263 -233 -210 -153 -146 -127 -81 -90 -65 -54 -23 -33 -60 -44 -33 -64 -69 -53
0 0 0 0 0 0 0 0 0 0 0 0 0 0 0 -132 -126 -83 -137 -143 -128 -128 -147 -174 -238 -283 -297 -281 -316 -260 -237 -187 -160 -112 -80 -51 -29 -29 -34 -28 -45 -42 -39 -49
0 0 0 0 0 0 0 0 0 0 0 0 0 0 0 0 0 0 0 0 -75 -189 -198 -247 -262 -302 0 0 0 -258 -207 -196 -180 -169 -158 -172 -132 -60 -39 -26 -18 -26 -22 -28
0 0 0 0 0 0 0 0 0 0 0 0 0 0 0 0 0 0 0 0 -219 -226 -240 -188 0 0 0 0 0 0 -209 -23 0 0 0 0 0 -179 -139 -109 -45 -29 -44 -26
0 0 0 0 0 0 0 0 0 0 0 0 0 0 0 0 0 0 0 0 0 0 0 0 0 0 0 0 0 0 0 0 0 0 0 0 0 0 0 -180 -147 -53 -5 0
0 0 0 0 0 0 0 0 0 0 0 0 0 0 0 0 0 0 0 0 0 0 0 -10 -4 0 0 0 0 0 0 0 0 -1 0 0 0 0 0 0 -180 -83 -37 -15
0 0 0 0 0 0 0 0 0 0 0 0 0 0 0 0 0 0 0 0 0 0 -2 0 0 0 0 0 -102 -177 -106 0 0 0 0 0 0 0 0 0 -10 -3 -4 0
0 0 0 0 0 0 0 0 -126 0 0 0 0 0 0 0 0 0 0 0 -4 0 0 -11 -1 -1 -2 0 -134 -126 0 -209 -241 0 0 0 0 0 0 -1 -26 -10 0 0
0 0 0 0 0 0 -251 -327 -300 -136 -10 0 0 0 0 0 0 0 -1 -8 -9 0 0 0 0 0 -3 0 -194 -78 -155 -167 -151 0 0 0 0 0 0 0 0 0 0 0
-90 0 0 0 -202 -260 -306 -289 -261 -275 0 0 0 0 0 0 0 0 -1 0 0 0 0 0 0 0 0 0 -172 -156 -186 -155 -152 0 0 0 0 0 0 0 0 0 0 0
-202 -150 -65 0 -100 -77 -91 -302 -325 -254 -184 0 0 0 0 0 0 0 0 0 0 0 0 0 0 0 0 0 0 -1 -138 -213 -221 0 0 0 0 0 0 0 0 0 0 0
Wind_Speed
5 4 7 11 12 15 12 12 18 18 17 12 6 12 14 12 15 19 21 22 25 25 24 27 27 25 21 21 22 26 28 30 29 27 26 25 25 22 22 21 21 18 21 21
4 4 10 12 14 15 14 14 18 18 16 13 15 9 16 12 16 18 18 19 24 26 25 24 25 25 24 23 22 25 27 29 31 30 27 24 25 24 23 23 22 20 23 24
2 10 8 7 13 15 17 18 17 21 17 17 19 21 15 9 16 19 19 21 22 26 27 22 19 24 24 25 25 25 26 26 28 30 27 24 22 22 24 23 23 23 24 25
8 2 6 9 12 17 25 20 21 21 20 19 16 21 21 11 5 20 20 17 23 23 28 26 17 18 23 24 25 25 26 27 29 30 30 31 29 26 26 27 24 24 25 24
8 4 1 7 10 12 25 18 20 21 14 16 16 20 20 16 16 20 16 19 20 24 24 25 18 22 22 18 22 23 25 26 27 28 30 32 31 29 24 26 26 24 23 23
5 8 7 9 12 6 11 16 17 15 15 20 17 18 17 14 14 18 7 17 20 21 22 22 21 17 15 15 16 18 22 26 26 26 26 32 32 31 27 25 24 24 22 23
10 6 9 7 10 9 15 15 18 19 19 21 16 16 22 21 21 22 21 19 18 20 17 16 13 16 13 15 20 15 16 23 24 27 26 30 33 32 32 30 27 25 25 26
11 11 3 3 8 7 9 17 23 25 23 23 19 20 17 19 20 20 18 18 17 17 20 17 17 16 16 17 16 11 14 16 18 22 25 25 33 32 32 32 30 29 28 28
14 12 12 10 9 7 11 19 20 20 21 23 20 22 23 19 18 16 16 15 10 9 15 17 15 14 12 13 18 13 9 7 7 13 26 23 34 34 33 31 30 30 30 28
14 14 10 10 10 14 15 10 24 26 29 30 23 22 18 16 15 14 14 13 12 10 8 11 11 10 10 8 10 9 12 11 8 8 8 7 15 35 35 33 32 31 30 29
8 14 11 9 10 7 13 19 20 20 24 30 32 28 24 16 14 13 13 14 15 11 8 5 3 2 3 4 7 10 11 10 11 13 16 21 22 32 35 35 33 31 32 30
9 14 18 14 17 19 18 17 21 28 23 22 24 25 17 16 15 13 13 15 16 16 13 10 5 4 4 2 7 7 10 16 18 22 23 24 25 19 12 27 32 30 30 31
8 15 15 11 10 13 17 15 18 20 23 28 29 24 17 16 15 15 15 15 15 15 14 14 14 13 13 14 9 9 8 15 12 17 21 26 29 29 21 18 24 29 31 29
7 17 20 18 16 14 18 17 16 21 25 26 30 29 22 17 17 13 13 15 15 14 14 14 15 15 16 18 19 18 16 15 13 16 22 32 31 30 34 32 22 20 25 30
19 24 20 18 14 15 14 13 16 22 23 26 25 24 23 12 11 13 13 14 14 14 15 16 16 17 17 18 19 19 20 19 12 9 13 32 31 29 34 34 34 29 28 25
23 20 17 19 16 17 18 19 21 26 25 27 26 26 21 17 15 14 13 14 15 15 16 16 17 17 17 18 18 19 20 21 20 19 17 35 31 31 29 30 26 28 30 31
24 16 18 22 19 20 27 26 25 26 26 26 24 23 16 14 13 14 14 15 14 15 15 16 17 17 17 18 20 22 22 22 22 23 24 27 31 30 31 30 37 33 29 29
26 20 18 20 16 29 25 22 22 24 23 19 21 17 16 17 17 15 14 14 13 15 17 17 16 17 18 18 19 20 21 23 24 27 29 30 33 40 41 39 33 28 33 31
26 26 21 22 23 25 24 20 16 17 21 17 18 18 18 18 17 17 17 15 18 19 18 16 16 17 18 19 21 22 23 24 27 29 32 34 36 42 43 41 42 37 36 31
19 28 25 21 23 27 23 13 11 12 25 17 17 19 17 15 18 19 21 16 16 16 15 15 15 17 18 18 19 21 23 26 28 32 36 38 40 44 46 39 27 29 31 30
26 26 26 22 22 22 17 8 8 18 20 15 11 13 11 15 18 18 19 18 16 15 15 15 17 17 16 16 17 19 21 25 29 33 36 38 41 45 18 34 24 26 26 27
29 23 25 22 22 26 5 6 14 16 14 16 13 12 12 15 17 18 19 17 15 14 14 14 13 13 12 13 12 16 21 25 28 31 35 36 36 36 30 21 17 22 24 21
34 29 21 20 17 16 3 14 11 12 14 15 12 12 13 14 16 18 18 16 16 11 15 14 10 9 11 13 12 14 18 22 26 29 32 32 29 28 25 16 15 16 19 19
27 21 20 18 17 14 7 12 10 12 14 12 13 11 12 13 13 14 15 14 15 11 9 9 6 5 7 11 11 11 15 20 22 25 28 28 26 23 19 19 15 14 16 18
31 25 23 23 20 14 11 13 11 12 11 11 13 13 12 10 11 11 12 13 13 13 12 10 8 6 6 7 6 10 11 17 20 23 26 25 26 24 16 14 14 12 14 14
22 26 23 19 10 16 13 4 10 10 11 11 13 12 10 7 7 10 12 13 13 14 14 13 12 10 9 7 5 7 9 13 17 21 22 22 22 20 22 22 17 16 11 3
Wind_Direction
333 297 272 284 293 303 325 317 295 307 325 339 106 166 165 129 144 158 166 168 175 177 175 186 186 175 160 155 155 167 174 189 197 208 214 223 226 236 238 244 242 253 236 235
348 240 286 294 291 292 302 306 296 311 329 336 324 5 181 142 161 164 162 166 177 185 182 177 178 175 171 164 159 165 171 176 191 199 216 231 233 240 242 245 248 256 241 237
282 329 294 276 284 284 286 287 297 299 321 313 304 302 326 140 166 173 175 180 182 187 187 173 162 171 169 171 168 166 167 170 178 199 226 236 244 245 244 250 252 249 242 239
325 317 330 289 277 275 271 279 289 299 304 298 309 285 286 333 110 179 178 172 184 182 192 183 161 159 165 170 169 171 172 177 182 186 222 211 221 235 236 230 244 249 241 242
335 348 284 308 277 267 267 282 288 294 303 301 304 297 292 311 301 185 171 177 180 180 179 179 171 171 167 156 163 167 171 174 178 179 192 212 209 230 249 240 245 254 255 255
307 349 343 318 305 208 266 279 293 295 295 288 297 296 301 293 310 290 84 173 177 174 172 175 175 163 159 153 156 161 166 177 178 177 178 200 219 230 244 248 251 252 262 259
303 304 318 322 311 278 264 265 270 270 278 281 299 296 272 276 269 260 234 191 168 172 168 168 164 165 165 165 168 164 166 174 176 183 183 194 216 231 236 242 249 252 257 257
291 294 299 330 301 283 247 257 262 264 271 275 287 284 292 277 276 272 249 197 149 153 163 162 167 169 172 174 174 166 167 173 171 175 182 185 209 237 237 241 247 251 253 252
295 288 297 297 303 293 267 261 274 277 279 277 281 278 274 277 283 287 292 292 339 100 143 156 156 163 174 180 182 187 186 188 219 178 188 184 231 232 237 248 253 252 253 257
298 287 290 293 294 290 276 281 270 269 264 263 273 275 280 279 284 291 302 316 333 17 109 148 156 161 169 195 202 214 198 193 219 240 241 226 184 239 241 248 250 250 252 256
278 292 293 288 280 263 276 273 277 277 268 259 260 267 271 278 284 294 312 327 332 2 27 71 121 139 175 181 216 216 214 232 255 266 269 268 271 257 248 249 254 256 254 256
265 289 281 293 283 270 274 276 271 261 267 269 268 267 283 273 282 298 313 324 330 330 338 341 353 347 329 327 288 206 207 268 260 274 269 268 268 272 234 267 260 262 263 261
247 271 280 294 300 278 272 281 278 269 265 258 256 265 286 278 282 290 303 319 328 335 337 326 316 309 306 302 308 298 275 278 262 268 271 268 268 266 267 270 270 266 264 265
235 269 270 270 276 276 275 276 278 267 262 262 254 261 276 278 280 293 305 313 322 331 338 336 328 316 306 296 295 293 294 292 283 262 270 266 269 269 263 265 271 270 269 267
259 263 269 272 282 281 290 280 274 270 269 263 270 273 277 287 288 292 306 315 320 326 331 331 327 317 310 305 298 296 295 297 292 246 257 272 272 275 266 265 266 273 271 268
256 260 262 262 273 280 280 277 273 265 269 265 271 274 284 287 291 297 304 311 313 317 322 324 323 320 317 309 302 301 299 298 299 292 285 264 275 272 274 272 269 272 270 270
253 254 258 260 268 277 272 275 278 277 274 273 276 282 291 292 295 299 305 310 316 317 317 317 317 314 314 311 304 296 298 299 298 294 291 284 279 277 276 277 270 268 267 268
250 252 264 265 272 266 282 296 284 277 281 282 285 290 292 298 303 310 315 318 317 315 313 314 314 312 312 309 306 304 301 299 299 294 291 290 284 271 270 273 273 270 264 268
245 245 255 262 269 282 288 290 289 285 284 285 286 290 297 305 313 316 323 322 316 312 312 312 312 311 311 308 305 302 300 301 300 297 292 292 287 277 275 274 270 269 268 268
248 248 251 261 269 273 291 301 309 308 282 287 289 292 301 311 307 313 322 324 322 320 318 316 316 312 307 308 310 307 305 301 301 300 296 292 285 273 266 276 272 270 265 264
239 243 246 254 270 283 290 309 321 289 297 314 306 304 312 311 316 324 324 321 321 321 319 316 312 309 310 312 313 312 315 310 308 306 301 295 285 270 248 280 271 268 267 264
237 238 247 255 266 278 315 326 293 303 315 318 320 315 314 319 324 328 322 322 323 321 319 317 314 313 312 315 324 323 320 321 319 318 313 305 297 289 294 278 263 265 263 259
244 246 249 257 275 306 177 308 316 333 321 325 333 326 322 324 327 327 326 329 324 335 316 318 318 315 308 309 317 328 334 332 333 330 329 321 309 303 302 290 275 266 256 255
256 262 255 267 277 286 277 308 321 322 330 341 338 339 335 335 338 341 340 349 341 0 14 347 342 335 321 310 313 339 340 347 350 344 345 343 332 321 312 310 300 283 266 254
254 255 254 259 270 285 282 297 317 318 336 343 341 339 343 354 352 8 12 9 15 27 17 30 49 25 359 342 338 321 352 4 359 356 357 355 359 0 350 342 328 318 290 272
255 249 249 261 259 279 285 284 310 326 330 332 332 336 355 17 24 25 23 33 30 28 33 34 40 41 34 26 354 9 19 12 359 355 355 4 13 16 27 38 31 27 22 12